Taba International, Egypt

10:57 AM EET on September 25, 2017 (GMT +0200)
Taba International

Weather History for HETB - October, 2013

Change the Weather History Date:

Saturday, October 19, 2013

  Actual Average Record
Temperature  
Mean Temperature 66 °F -  
Max Temperature 75 °F - - ()
Min Temperature 57 °F - - ()
Cooling Degree Days 1    
Growing Degree Days 16 (Base 50)    
Moisture  
Dew Point 51 °F    
Average Humidity 62    
Maximum Humidity 88    
Minimum Humidity 34    
Precipitation  
Precipitation 0.00 in - - ()
Sea Level Pressure  
Sea Level Pressure 30.15 in    
Wind  
Wind Speed 3 mph ()    
Max Wind Speed 14 mph    
Max Gust Speed -    
T = Trace of Precipitation, MM = Missing Value Source: Averaged Metar Reports

Daily Weather History Graph

Daily Weather History Graph

Search for Another Location

Airport or City:

Trip Planner

Search our weather history database for the weather conditions in past years. The results will help you decide how hot, cold, wet, or windy it might be!

Date:

Astronomy

Oct. 19, 2013 Rise Set
Actual Time 5:44 AM EET 5:06 PM EET
Civil Twilight 5:20 AM EET 5:30 PM EET
Nautical Twilight 4:53 AM EET 5:58 PM EET
Astronomical Twilight 4:25 AM EET 6:25 PM EET
Moon 5:25 PM EET (10/19) 5:58 AM EET (10/19)
Length of Visible Light 12h 09m
Length of Day
11h 21m
Full, 100% of the Moon is Illuminated
Oct 19
Full
Oct 27
Last Quarter
Nov 3
New
Nov 10
First Quarter
Nov 17
Full

Hourly Weather History & Observations

Time (EET) Temp. Dew Point Humidity Pressure Visibility Wind Dir Wind Speed Gust Speed Precip Events Conditions
12:00 AM 62.6 °F 53.6 °F 72% 30.09 in - WNW 2.3 mph - N/A   Clear
1:00 AM 62.6 °F 53.6 °F 72% 30.09 in - WNW 4.6 mph - N/A   Clear
2:00 AM 59.0 °F 51.8 °F 77% 30.09 in - Calm Calm - N/A   Clear
3:00 AM 59.0 °F 51.8 °F 77% 30.09 in - Calm Calm - N/A   Clear
4:00 AM 57.2 °F 53.6 °F 88% 30.12 in - Calm Calm - N/A   Clear
5:00 AM 57.2 °F 53.6 °F 88% 30.12 in - Calm Calm - N/A   Clear
8:00 AM 62.6 °F 57.2 °F 82% 30.15 in - Calm Calm - N/A   Clear
9:00 AM 66.2 °F 51.8 °F 60% 30.18 in - Calm Calm - N/A   Clear
10:00 AM 69.8 °F 50.0 °F 49% 30.18 in - Variable 2.3 mph - N/A   Clear
11:00 AM 71.6 °F 48.2 °F 43% 30.18 in - Variable 2.3 mph - N/A   Clear
2:00 PM 75.2 °F 46.4 °F 36% 30.12 in - NW 3.5 mph - N/A   Clear
3:00 PM 75.2 °F 44.6 °F 34% 30.12 in - NW 5.8 mph - N/A   Clear
4:00 PM 73.4 °F 44.6 °F 36% 30.12 in - NW 9.2 mph - N/A   Clear
5:00 PM 71.6 °F 46.4 °F 41% 30.12 in - NW 10.4 mph - N/A   Clear
6:00 PM 69.8 °F 44.6 °F 40% 30.15 in - WNW 10.4 mph - N/A   Clear
7:00 PM 68.0 °F 50.0 °F 52% 30.18 in - NW 13.8 mph - N/A   Clear
8:00 PM 64.4 °F 51.8 °F 64% 30.18 in - NW 11.5 mph - N/A   Clear
9:00 PM 62.6 °F 53.6 °F 72% 30.21 in - WNW 10.4 mph - N/A   Clear
10:00 PM 60.8 °F 53.6 °F 77% 30.21 in - WNW 6.9 mph - N/A   Clear
11:00 PM 59.0 °F 51.8 °F 77% 30.21 in - WNW 6.9 mph - N/A   Clear